Volver al catálogo

YAOGAN-39 03C

ActivoMilitarVLEO
NORAD 57990·PAYLOAD·🇨🇳 China

Lanzado Oct 5, 2023 desde Xichang Satellite Launch Center

Loading…

Próximos Pases (próximas 24 horas)

TLE

ActualizadoSource: Space-Track

Época: Sep 14, 2026, 22:04 UTC

1 57990U 23152E   26257.91949512  .00003605  00000-0  17962-3 0  9997
2 57990  34.9891  97.1816 0017776 224.3408 135.5881 15.16922158163796

Sigue YAOGAN-39 03C en tiempo real con AllMySat

Download on the App Store